Temperature
18 18 18 18 18 18 18 18 17 17 17 17 17 17 16 16 16 16 16 16 16 16 16 15 15 15 15 15 15 15 15 15 15 14 14 14 14 14
18 18 18 18 18 18 18 18 17 17 17 17 17 16 16 16 16 16 16 16 15 15 15 15 15 15 15 15 15 15 14 14 14 14 14 14 14 13
18 18 18 18 18 17 17 17 17 17 17 17 16 16 16 16 16 15 15 15 15 15 15 15 15 15 15 14 14 14 14 14 14 14 13 13 13 13
18 17 17 17 17 17 17 17 17 17 17 16 16 16 16 15 15 15 15 15 15 15 15 15 14 14 14 14 14 14 14 14 13 13 13 13 13 13
17 17 17 17 17 17 17 17 17 17 17 16 16 16 16 15 15 15 14 14 14 14 14 14 14 14 14 14 14 14 14 13 13 13 13 13 13 12
17 17 17 17 17 17 17 17 16 16 16 16 16 16 15 15 15 14 14 14 14 14 14 14 14 13 13 13 13 13 13 13 13 13 13 12 12 12
17 17 17 17 17 17 16 16 16 16 16 16 16 15 15 15 15 14 14 14 14 13 13 13 13 13 13 13 13 13 13 13 12 12 12 12 12 11
17 17 17 17 17 16 16 16 16 16 16 16 15 15 15 15 15 14 14 13 13 13 13 13 13 13 13 13 13 12 12 12 12 12 12 11 11 11
17 17 16 16 16 16 16 16 16 16 16 16 15 15 15 15 14 14 14 13 13 13 13 13 12 12 12 12 12 12 12 12 11 11 11 11 11 11
17 16 16 16 16 16 16 16 15 15 15 15 15 15 14 14 14 14 13 13 13 13 13 12 12 12 12 12 12 11 11 11 11 11 11 11 10 10
16 16 16 16 16 16 15 15 15 15 15 15 15 14 14 14 14 13 13 13 12 13 12 12 12 12 12 12 11 11 11 11 11 10 10 10 10 10
16 16 16 15 15 15 15 15 15 15 14 14 14 14 14 14 13 13 13 13 12 12 12 12 12 11 11 11 11 11 11 11 10 10 10 10 10 9
15 15 15 15 15 15 15 15 14 14 14 14 14 14 13 13 13 13 13 12 12 12 12 12 11 11 11 11 11 11 10 10 10 10 10 10 9 9
15 15 15 15 15 14 14 14 14 14 13 13 13 13 13 13 13 13 12 12 12 12 11 11 11 11 11 10 10 10 10 10 10 10 9 9 9 9
14 14 14 14 14 14 14 14 14 13 13 13 12 12 12 12 12 12 12 11 11 11 11 11 11 11 10 10 10 10 10 10 10 9 9 9 9 9
14 14 14 14 13 13 13 13 13 13 13 12 12 12 12 12 11 11 11 11 11 11 11 10 10 10 10 10 10 10 9 9 9 9 9 9 9 8
14 13 13 13 13 13 13 13 13 12 12 12 12 11 11 11 11 11 11 10 10 10 10 10 10 10 10 10 9 9 9 9 9 9 8 8 8 8
13 13 13 12 12 12 12 12 12 12 12 12 11 11 11 11 11 10 10 10 10 10 10 10 10 9 9 9 9 9 9 9 9 8 8 8 8 8
12 12 12 12 12 11 11 11 11 11 11 11 11 10 10 10 10 10 10 10 10 9 9 9 9 9 9 9 9 9 9 9 8 8 8 8 8 8
12 11 11 11 11 11 11 10 10 10 10 10 10 9 9 9 9 9 9 9 9 9 9 9 9 9 8 8 8 9 9 8 8 8 8 8 8 8
11 11 11 10 10 10 10 10 10 9 9 9 9 9 9 9 9 9 9 9 8 8 8 8 8 8 8 8 8 8 8 8 8 8 8 7 7 7
10 10 10 10 10 10 9 9 9 9 8 8 8 8 8 8 8 8 8 8 8 8 8 8 8 8 8 7 7 8 8 8 8 7 7 7 7 7
10 10 9 9 9 9 9 8 8 8 8 8 8 7 7 7 7 7 8 8 8 8 7 7 7 7 7 7 7 7 7 7 7 7 7 7 7 7
Wind_Speed
3 3 3 3 3 2 2 3 2 2 2 2 2 2 4 6 8 7 8 9 8 7 6 5 4 3 3 3 3 3 3 4 4 5 5 5 4 4
3 2 2 3 2 2 2 2 2 2 2 1 1 3 3 5 7 7 7 9 8 7 6 5 5 4 4 4 3 4 4 3 4 4 4 4 4 4
3 2 2 2 2 3 2 2 2 1 2 1 1 3 3 4 5 5 6 7 6 7 7 6 5 5 4 4 5 5 5 5 5 5 4 4 4 3
2 2 2 2 2 2 2 2 1 1 2 2 2 2 2 4 4 3 3 5 6 7 8 7 6 6 6 6 6 6 7 6 6 5 5 4 4 3
2 2 3 2 2 2 2 2 2 2 1 2 3 2 2 3 3 3 3 3 4 7 8 7 7 7 6 6 7 7 7 7 6 5 5 4 4 4
2 3 3 2 2 3 3 2 2 2 1 2 2 3 3 3 3 3 3 3 3 4 6 7 8 7 7 7 7 8 7 7 7 6 5 5 4 4
3 3 3 3 2 1 2 1 2 2 1 1 2 2 2 3 3 3 2 3 2 3 3 4 5 5 6 7 8 8 9 8 7 7 6 5 5 4
3 3 3 3 3 3 2 1 1 2 1 1 1 2 3 3 3 3 3 2 2 3 3 3 4 4 6 7 9 11 11 10 9 8 7 6 5 5
3 3 5 3 4 3 3 4 3 3 2 1 1 1 2 2 3 3 3 2 2 3 3 3 3 3 4 8 14 13 13 12 11 9 8 7 6 5
3 4 4 2 3 2 3 3 3 3 3 3 1 1 1 2 3 3 3 3 2 2 2 2 2 2 3 6 13 14 14 13 12 11 9 8 7 6
3 3 3 3 3 4 3 3 2 2 2 3 3 2 2 3 3 2 2 3 2 2 2 2 1 1 2 4 9 14 14 14 13 12 11 10 8 7
3 3 3 3 4 5 4 3 3 3 2 2 2 2 3 4 5 4 3 3 2 1 2 2 1 1 1 2 5 9 10 12 13 13 12 11 10 7
2 2 1 4 5 5 4 3 3 2 2 3 3 3 2 3 3 3 2 2 2 1 2 2 1 1 2 1 2 5 7 7 8 9 11 12 12 10
2 0 1 4 4 4 3 3 3 3 2 2 2 2 2 3 2 3 2 2 2 2 3 3 2 2 2 2 2 3 4 6 6 6 8 11 12 13
1 2 2 3 4 3 5 4 3 3 2 2 2 2 2 2 2 3 2 2 2 3 4 4 2 2 3 3 2 2 2 3 4 4 5 6 6 6
1 1 2 3 3 3 3 4 3 3 3 2 1 1 2 2 3 2 2 3 2 2 3 5 4 3 4 4 3 3 3 3 3 4 4 4 6 8
2 2 1 1 2 3 3 3 3 3 3 2 2 1 1 2 2 2 2 2 3 3 3 3 4 5 4 3 3 3 3 3 3 4 4 5 5 6
2 2 2 2 2 2 2 1 1 2 2 2 2 2 1 2 2 2 2 2 2 2 2 2 2 2 2 2 3 3 3 3 3 3 4 5 5 5
1 1 1 1 1 1 1 0 0 1 0 0 1 1 1 1 2 2 2 2 2 2 2 2 2 2 3 3 3 4 3 3 2 3 4 4 5 5
1 1 1 1 1 2 2 2 2 2 2 1 1 1 1 1 2 2 1 1 2 2 2 1 1 1 3 4 3 4 7 5 3 4 4 4 3 4
1 1 1 1 1 2 2 2 1 1 2 2 2 2 2 2 2 2 1 1 2 2 3 2 2 4 3 2 3 4 3 7 6 4 3 3 3 3
1 1 1 1 2 2 2 1 1 2 2 1 1 1 2 2 2 2 2 2 3 3 3 2 2 2 2 3 5 4 4 3 5 8 7 5 3 3
2 2 2 2 2 2 2 1 2 2 2 2 2 2 2 2 2 2 2 2 2 3 2 3 3 3 3 3 4 4 4 4 2 3 5 8 10 8
Wind_Direction
254 250 257 260 253 245 246 238 232 254 244 203 186 137 128 120 135 142 141 150 153 155 160 163 168 180 195 201 201 198 196 201 203 203 199 194 191 197
234 239 258 280 288 265 251 249 229 235 249 200 171 129 123 130 138 136 137 143 150 152 157 162 167 171 175 173 170 167 166 159 155 155 154 156 163 175
246 232 234 247 279 289 287 270 256 222 229 204 118 116 112 114 131 137 143 144 147 156 160 163 168 172 167 160 150 141 138 138 140 140 140 144 158 171
233 255 260 250 239 268 290 281 270 216 197 200 167 138 138 147 147 158 162 156 150 160 161 160 164 164 162 156 153 151 147 147 147 148 149 147 151 155
227 237 250 255 266 261 266 284 292 272 194 196 188 157 154 162 157 172 177 164 168 166 166 167 167 165 163 161 160 158 154 151 151 153 154 156 158 161
225 230 236 228 238 250 253 253 270 285 245 207 193 165 155 162 171 188 189 178 183 172 164 170 174 173 171 168 166 162 158 155 152 151 151 155 157 160
227 228 225 201 185 211 259 277 270 253 245 220 198 163 162 167 191 192 189 177 189 184 169 177 172 176 183 187 183 175 168 167 166 163 162 164 168 167
240 245 230 194 185 185 186 186 235 244 243 237 219 196 182 176 171 184 182 187 199 176 184 202 187 186 183 183 184 180 176 174 173 172 173 175 179 179
247 248 259 231 174 186 189 205 215 206 198 219 242 241 200 175 178 196 203 206 211 177 186 214 197 185 173 177 177 180 182 182 181 181 184 186 188 189
239 236 241 226 208 195 198 206 210 200 204 206 197 235 202 165 188 201 202 200 223 215 186 208 194 191 161 156 178 181 185 187 189 189 190 193 199 204
248 240 229 211 196 185 206 221 218 197 177 149 146 141 123 142 161 181 202 203 224 204 182 202 195 195 169 165 184 189 190 194 197 197 199 201 204 207
230 230 218 203 176 178 204 222 228 226 193 162 156 178 186 182 184 201 214 219 238 198 176 195 197 186 216 176 172 184 194 204 207 208 208 211 210 210
233 228 191 164 165 179 203 222 227 227 211 198 191 183 179 177 190 201 211 206 228 224 170 176 212 202 215 207 185 182 186 190 199 211 216 217 214 210
262 256 114 134 168 195 208 227 238 245 222 211 205 194 190 186 185 193 196 210 224 220 184 183 215 210 227 241 226 192 191 190 190 197 203 212 216 218
306 66 113 161 177 198 210 211 214 227 220 220 217 206 203 188 173 181 192 217 241 232 198 207 226 221 221 236 237 209 209 208 193 196 200 199 201 205
236 166 159 192 222 223 206 206 213 229 220 215 214 206 186 175 178 182 196 204 220 231 218 218 220 220 238 247 241 229 207 203 197 202 209 211 201 206
181 180 174 177 209 216 211 209 206 211 217 214 204 207 208 194 188 188 200 217 226 229 224 223 221 222 236 241 244 244 229 222 209 202 208 219 219 214
164 186 187 191 203 208 203 197 202 210 213 193 194 198 203 209 214 206 199 219 233 238 232 214 211 223 254 268 225 242 245 242 229 212 210 221 228 217
168 196 189 182 170 156 131 107 80 45 33 183 218 228 211 229 240 241 234 237 242 242 242 229 201 207 246 261 249 222 236 246 233 229 231 230 233 223
149 132 102 70 76 78 69 49 41 40 30 18 30 18 356 308 296 278 261 265 279 282 274 265 216 218 246 260 267 257 227 229 235 238 244 247 239 217
138 117 93 68 60 67 62 58 53 50 43 27 23 4 353 337 317 306 296 297 273 262 263 258 242 234 244 262 269 269 248 228 236 237 238 251 255 238
81 86 78 68 68 69 57 44 43 51 43 34 11 349 354 344 326 321 307 287 273 265 265 266 260 260 252 260 269 273 269 253 235 240 246 240 235 247
85 81 82 74 70 68 60 46 55 45 36 16 354 336 338 326 309 293 283 283 280 280 279 276 275 272 271 270 274 280 281 270 253 245 257 249 242 242
Height
1531 1531 1531 1531 1531 1531 1531 1531 1532 1531 1531 1530 1531 1531 1531 1530 1530 1530 1530 1531 1531 1531 1531 1531 1531 1531 1531 1531 1531 1532 1532 1532 1533 1533 1534 1534 1535 1535
1528 1528 1528 1528 1528 1529 1529 1529 1529 1529 1528 1528 1528 1528 1528 1528 1528 1528 1528 1528 1528 1529 1529 1529 1529 1529 1529 1529 1529 1529 1529 1529 1530 1530 1531 1531 1532 1532
1526 1526 1526 1526 1526 1526 1526 1526 1526 1526 1525 1525 1525 1525 1526 1526 1526 1526 1526 1526 1526 1526 1526 1526 1526 1526 1526 1526 1526 1526 1526 1526 1526 1527 1528 1528 1528 1529
1523 1523 1524 1524 1523 1523 1523 1523 1524 1523 1523 1522 1523 1523 1523 1524 1524 1524 1524 1524 1524 1524 1524 1524 1524 1524 1524 1524 1524 1524 1524 1524 1524 1525 1525 1525 1525 1526
1521 1521 1521 1521 1521 1521 1521 1521 1521 1521 1521 1521 1521 1521 1521 1521 1521 1522 1522 1522 1522 1522 1522 1522 1522 1522 1522 1522 1521 1522 1522 1522 1522 1522 1522 1522 1522 1522
1518 1518 1518 1518 1517 1518 1518 1518 1518 1518 1518 1518 1518 1518 1518 1518 1519 1519 1519 1520 1520 1520 1519 1519 1520 1520 1520 1519 1519 1519 1519 1519 1519 1519 1519 1519 1519 1519
1515 1515 1515 1514 1515 1515 1515 1515 1515 1515 1515 1515 1516 1515 1515 1515 1516 1516 1517 1517 1517 1517 1517 1517 1517 1517 1517 1517 1517 1517 1517 1517 1516 1516 1516 1516 1516 1516
1512 1512 1512 1511 1511 1511 1512 1512 1512 1512 1512 1512 1512 1512 1512 1513 1513 1513 1514 1514 1514 1515 1515 1515 1515 1514 1514 1514 1514 1514 1514 1514 1514 1514 1513 1513 1513 1513
1509 1508 1509 1509 1509 1508 1508 1509 1509 1509 1509 1510 1510 1509 1510 1510 1510 1511 1511 1511 1511 1511 1512 1512 1513 1512 1512 1511 1512 1512 1511 1511 1511 1511 1511 1511 1510 1510
1505 1505 1505 1505 1506 1505 1506 1506 1506 1506 1506 1506 1506 1506 1507 1507 1508 1508 1508 1508 1509 1509 1509 1510 1510 1510 1510 1509 1509 1509 1509 1509 1509 1508 1508 1508 1507 1507
1501 1501 1502 1502 1502 1502 1503 1503 1503 1503 1503 1503 1503 1503 1504 1504 1504 1505 1505 1505 1505 1506 1506 1506 1506 1507 1507 1506 1507 1507 1507 1506 1506 1506 1505 1505 1505 1505
1497 1497 1498 1498 1498 1498 1499 1499 1499 1499 1500 1500 1500 1500 1500 1501 1501 1501 1502 1502 1502 1502 1502 1503 1503 1504 1504 1504 1504 1504 1504 1503 1503 1503 1503 1502 1502 1501
1493 1493 1493 1494 1494 1495 1495 1495 1496 1496 1496 1497 1496 1496 1497 1497 1497 1498 1498 1499 1499 1499 1499 1500 1500 1501 1501 1501 1500 1500 1500 1500 1500 1500 1499 1499 1499 1499
1490 1490 1490 1491 1491 1491 1491 1492 1492 1493 1493 1494 1493 1493 1493 1494 1494 1494 1495 1495 1496 1496 1496 1496 1496 1497 1497 1497 1497 1496 1497 1497 1497 1496 1496 1496 1496 1496
1487 1487 1487 1487 1488 1488 1488 1488 1489 1489 1490 1490 1490 1490 1490 1491 1491 1491 1491 1492 1492 1492 1492 1492 1493 1493 1494 1494 1494 1493 1493 1493 1493 1493 1492 1492 1492 1492
1483 1483 1483 1484 1484 1484 1484 1485 1485 1485 1486 1486 1487 1487 1488 1488 1488 1487 1487 1487 1488 1488 1489 1489 1490 1490 1490 1490 1490 1490 1490 1489 1489 1489 1489 1489 1489 1488
1479 1479 1479 1480 1480 1480 1481 1481 1481 1482 1482 1483 1484 1484 1485 1485 1485 1484 1484 1485 1485 1485 1485 1486 1486 1486 1487 1487 1486 1486 1486 1486 1485 1485 1485 1484 1484 1484
1476 1476 1476 1476 1477 1477 1478 1478 1478 1478 1478 1479 1480 1481 1481 1482 1482 1482 1482 1482 1482 1482 1482 1483 1482 1482 1483 1483 1483 1482 1482 1482 1482 1481 1481 1481 1480 1480
1473 1473 1474 1474 1474 1474 1475 1475 1475 1475 1476 1476 1477 1477 1478 1479 1479 1479 1479 1479 1479 1479 1479 1480 1479 1479 1478 1478 1478 1479 1479 1478 1478 1478 1477 1477 1476 1476
1471 1471 1472 1472 1472 1472 1472 1473 1473 1473 1473 1473 1474 1474 1475 1475 1476 1476 1476 1476 1476 1476 1477 1477 1476 1476 1475 1475 1475 1474 1475 1474 1474 1473 1473 1472 1472 1472
1469 1469 1470 1470 1470 1471 1471 1471 1471 1472 1472 1471 1471 1471 1472 1473 1474 1474 1474 1473 1473 1473 1473 1473 1473 1473 1472 1472 1472 1471 1471 1471 1470 1469 1469 1468 1468 1467
1467 1467 1468 1468 1469 1469 1469 1469 1469 1470 1470 1470 1470 1470 1470 1470 1471 1471 1471 1471 1470 1470 1470 1470 1470 1469 1469 1468 1467 1467 1466 1466 1466 1465 1465 1464 1463 1462
1465 1465 1466 1466 1467 1467 1467 1467 1467 1467 1468 1468 1467 1467 1467 1467 1468 1468 1468 1468 1468 1467 1467 1467 1466 1466 1465 1465 1464 1463 1462 1462 1461 1460 1460 1459 1459 1458